Startpagina
METAR-TAF:

METAR-TAF

Vliegvelden :

Rajahmundry, India

breedte: 17-06-37N, lengte: 81-49-06E, hoogte: 46 m

Actueel weer

Dit bericht is 34 minuten geleden gemaakt, om 05:00 UTC
Wind 4 kt uit het oostzuidoosten
Temperatuur 30°C
Vochtigheid 70%
Druk 1014 hPa
Zicht: 6000 m
Verspreide wolken op 2000 ft

METAR: VORY 180500Z 12004KT 6000 SCT020 30/24 Q1014 NOSIG

Tijdstip: 11:04 (05:34 UTC)


TAF: ontbreekt

Waarnemingen en weersverwachtingen van meer dan 4000 vliegvelden (METAR en TAF).

De beschikbare stations zijn de gele en rode punten op de kaart.

Ga met uw muis naar het station om de naam te zien.

Klik dan om waarnemingen en weersverwachtingen te zien.

kaart wijzigen: klik op de groene knoppen met een zwart kruis om in te zoomen, op de groene knop met een streepje om uit te zoomen of op de groene pijlen voor aangrenzende kaarten.


METAR-TAF: